| time (UTC) | temp F | wind direction | speed MPH | gust MPH | rain 1hr in | rain 24hr in | rain mn in | humidity % | barometer mb |
| 20260505195433 | 82 | 201 | 5.0 | 15.0 | 0.00 | 0.08 | 0.08 | 32 | 1008.3 |
| 20260505194931 | 83 | 184 | 6.0 | 15.0 | 0.00 | 0.08 | 0.08 | 32 | 1008.4 |
| 20260505194428 | 83 | 231 | 11.0 | 15.0 | 0.00 | 0.08 | 0.08 | 33 | 1008.1 |
| 20260505193928 | 84 | 188 | 6.0 | 11.0 | 0.00 | 0.08 | 0.08 | 32 | 1008.2 |
| 20260505193426 | 84 | 225 | 7.0 | 20.0 | 0.00 | 0.08 | 0.08 | 32 | 1008.4 |
| 20260505192924 | 85 | 214 | 9.0 | 19.0 | 0.00 | 0.08 | 0.08 | 31 | 1008.4 |
| 20260505192421 | 83 | 174 | 2.0 | 10.0 | 0.00 | 0.08 | 0.08 | 34 | 1008.4 |
| 20260505191919 | 84 | 149 | 7.0 | 9.0 | 0.00 | 0.08 | 0.08 | 35 | 1008.6 |
| 20260505191417 | 83 | 227 | 5.0 | 9.0 | 0.00 | 0.08 | 0.08 | 33 | 1008.2 |
| 20260505190914 | 83 | 205 | 4.0 | 15.0 | 0.00 | 0.08 | 0.08 | 33 | 1008.5 |
| 20260505190409 | 84 | 208 | 13.0 | 20.0 | 0.00 | 0.08 | 0.08 | 30 | 1008.4 |
| 20260505185904 | 84 | 208 | 4.0 | 9.0 | 0.00 | 0.08 | 0.08 | 32 | 1008.7 |
| 20260505185402 | 84 | 204 | 3.0 | 11.0 | 0.00 | 0.08 | 0.08 | 31 | 1008.8 |
| 20260505184858 | 83 | 219 | 8.0 | 15.0 | 0.00 | 0.08 | 0.08 | 31 | 1008.8 |
| 20260505184355 | 83 | 212 | 4.0 | 15.0 | 0.00 | 0.08 | 0.08 | 30 | 1008.9 |
| 20260505183852 | 83 | 198 | 10.0 | 15.0 | 0.00 | 0.08 | 0.08 | 29 | 1008.6 |
| 20260505183349 | 83 | 204 | 5.0 | 13.0 | 0.00 | 0.08 | 0.08 | 31 | 1009.0 |
| 20260505182846 | 83 | 185 | 11.0 | 16.0 | 0.00 | 0.08 | 0.08 | 30 | 1008.9 |
| 20260505182342 | 83 | 212 | 5.0 | 13.0 | 0.00 | 0.08 | 0.08 | 30 | 1009.4 |
| 20260505181839 | 83 | 227 | 10.0 | 11.0 | 0.00 | 0.08 | 0.08 | 30 | 1008.9 |
| 20260505181336 | 83 | 283 | 11.0 | 13.0 | 0.00 | 0.08 | 0.08 | 30 | 1009.0 |
| 20260505180833 | 82 | 206 | 3.0 | 11.0 | 0.00 | 0.08 | 0.08 | 32 | 1009.3 |
| 20260505180329 | 82 | 162 | 4.0 | 18.0 | 0.00 | 0.08 | 0.08 | 32 | 1009.4 |
| 20260505175826 | 83 | 209 | 11.0 | 18.0 | 0.00 | 0.08 | 0.08 | 32 | 1009.7 |
| 20260505175322 | 82 | 226 | 9.0 | 14.0 | 0.00 | 0.08 | 0.08 | 33 | 1009.5 |
| 20260505174819 | 83 | 193 | 9.0 | 13.0 | 0.00 | 0.08 | 0.08 | 32 | 1009.3 |
| 20260505174316 | 82 | 212 | 10.0 | 13.0 | 0.00 | 0.08 | 0.08 | 33 | 1009.6 |
| 20260505173812 | 82 | 220 | 8.0 | 19.0 | 0.00 | 0.08 | 0.08 | 33 | 1009.7 |
| 20260505173309 | 82 | 190 | 7.0 | 17.0 | 0.00 | 0.08 | 0.08 | 32 | 1009.6 |
| 20260505172806 | 82 | 213 | 10.0 | 19.0 | 0.00 | 0.08 | 0.08 | 34 | 1009.8 |
| 20260505172305 | 82 | 219 | 6.0 | 14.0 | 0.00 | 0.08 | 0.08 | 35 | 1010.0 |
| 20260505171758 | 82 | 230 | 7.0 | 17.0 | 0.00 | 0.08 | 0.08 | 33 | 1009.8 |
| 20260505171255 | 82 | 246 | 10.0 | 10.0 | 0.00 | 0.08 | 0.08 | 34 | 1009.8 |
| 20260505170751 | 82 | 216 | 9.0 | 13.0 | 0.00 | 0.08 | 0.08 | 35 | 1009.8 |
| 20260505170249 | 82 | 207 | 5.0 | 11.0 | 0.00 | 0.08 | 0.08 | 37 | 1010.0 |
| 20260505165749 | 81 | 203 | 7.0 | 12.0 | 0.00 | 0.08 | 0.08 | 35 | 1009.9 |
| 20260505165246 | 80 | 221 | 6.0 | 8.0 | 0.00 | 0.08 | 0.08 | 38 | 1010.0 |
| 20260505164741 | 80 | 252 | 5.0 | 7.0 | 0.00 | 0.08 | 0.08 | 38 | 1010.3 |
| 20260505164239 | 80 | 276 | 5.0 | 9.0 | 0.00 | 0.08 | 0.08 | 38 | 1010.3 |
| 20260505163737 | 80 | 174 | 5.0 | 15.0 | 0.00 | 0.08 | 0.08 | 38 | 1010.2 |
| 20260505163235 | 80 | 256 | 9.0 | 11.0 | 0.00 | 0.08 | 0.08 | 37 | 1010.6 |
| 20260505162732 | 80 | 217 | 4.0 | 16.0 | 0.00 | 0.08 | 0.08 | 40 | 1010.7 |
| 20260505162229 | 80 | 248 | 6.0 | 12.0 | 0.00 | 0.08 | 0.08 | 37 | 1010.9 |
| 20260505161726 | 80 | 232 | 5.0 | 9.0 | 0.00 | 0.08 | 0.08 | 40 | 1010.7 |
| 20260505161224 | 79 | 186 | 7.0 | 12.0 | 0.00 | 0.08 | 0.08 | 39 | 1010.6 |
| 20260505160721 | 79 | 177 | 2.0 | 16.0 | 0.00 | 0.08 | 0.08 | 41 | 1010.5 |
| 20260505160218 | 79 | 207 | 6.0 | 10.0 | 0.00 | 0.08 | 0.08 | 39 | 1010.8 |
| 20260505153157 | 77 | 219 | 5.0 | 12.0 | 0.00 | 0.08 | 0.08 | 41 | 1011.0 |
| 20260505152654 | 77 | 232 | 7.0 | 9.0 | 0.00 | 0.08 | 0.08 | 40 | 1010.8 |
| 20260505152150 | 77 | 212 | 7.0 | 15.0 | 0.00 | 0.08 | 0.08 | 42 | 1011.1 |
| 20260505151646 | 76 | 228 | 14.0 | 17.0 | 0.00 | 0.08 | 0.08 | 42 | 1011.0 |
| 20260505151143 | 76 | 251 | 10.0 | 13.0 | 0.00 | 0.08 | 0.08 | 43 | 1011.1 |
| 20260505150639 | 76 | 223 | 7.0 | 11.0 | 0.00 | 0.08 | 0.08 | 44 | 1011.1 |
| 20260505150136 | 76 | 237 | 5.0 | 9.0 | 0.00 | 0.08 | 0.08 | 44 | 1011.4 |
| 20260505140605 | 71 | 239 | 4.0 | 9.0 | 0.00 | 0.08 | 0.08 | 51 | 1011.7 |
| 20260505125018 | 66 | 151 | 1.0 | 4.0 | 0.00 | 0.08 | 0.08 | 65 | 1012.3 |
| 20260505124515 | 66 | 331 | 2.0 | 2.0 | 0.00 | 0.08 | 0.08 | 64 | 1012.1 |
| 20260505124011 | 65 | 159 | 1.0 | 2.0 | 0.00 | 0.08 | 0.08 | 70 | 1012.1 |
| 20260505123508 | 64 | 246 | 2.0 | 2.0 | 0.00 | 0.08 | 0.08 | 73 | 1011.9 |
| 20260505123004 | 63 | 274 | 1.0 | 2.0 | 0.00 | 0.08 | 0.08 | 71 | 1012.0 |
| 20260505122501 | 62 | 96 | 2.0 | 3.0 | 0.00 | 0.08 | 0.08 | 74 | 1012.0 |
| 20260505121958 | 62 | 98 | 2.0 | 4.0 | 0.00 | 0.08 | 0.08 | 75 | 1011.9 |
| 20260505121455 | 62 | 127 | 2.0 | 4.0 | 0.00 | 0.08 | 0.08 | 76 | 1011.9 |
| 20260505120951 | 61 | 74 | 2.0 | 3.0 | 0.00 | 0.08 | 0.08 | 78 | 1011.9 |
| 20260505120447 | 60 | 18 | 2.0 | 3.0 | 0.00 | 0.08 | 0.08 | 79 | 1012.1 |
| 20260505115946 | 59 | 340 | 2.0 | 3.0 | 0.00 | 0.08 | 0.08 | 80 | 1012.0 |
| 20260505115443 | 60 | 303 | 2.0 | 3.0 | 0.00 | 0.08 | 0.08 | 82 | 1012.0 |
| 20260505114941 | 60 | 250 | 0.0 | 2.0 | 0.00 | 0.08 | 0.08 | 82 | 1011.9 |
| 20260505114437 | 60 | 17 | 3.0 | 3.0 | 0.00 | 0.08 | 0.08 | 77 | 1011.8 |
| 20260505113934 | 59 | 26 | 1.0 | 2.0 | 0.00 | 0.08 | 0.08 | 80 | 1011.6 |
| 20260505113430 | 59 | 299 | 1.0 | 2.0 | 0.00 | 0.08 | 0.08 | 82 | 1011.9 |
| 20260505112926 | 58 | 79 | 2.0 | 2.0 | 0.00 | 0.08 | 0.08 | 84 | 1011.6 |
| 20260505112424 | 57 | 98 | 2.0 | 3.0 | 0.00 | 0.08 | 0.08 | 85 | 1011.5 |
| 20260505111920 | 57 | 84 | 2.0 | 3.0 | 0.00 | 0.08 | 0.08 | 85 | 1011.8 |
| 20260505111415 | 57 | 108 | 2.0 | 2.0 | 0.00 | 0.08 | 0.08 | 86 | 1011.5 |
| 20260505110911 | 57 | 36 | 2.0 | 2.0 | 0.00 | 0.08 | 0.08 | 85 | 1011.7 |
| 20260505110408 | 56 | 55 | 0.0 | 2.0 | 0.00 | 0.08 | 0.08 | 87 | 1011.6 |
| 20260505101838 | 52 | 315 | 1.0 | 2.0 | 0.00 | 0.08 | 0.08 | 93 | 1011.3 |
| 20260505101333 | 52 | 58 | 0.0 | 1.0 | 0.00 | 0.08 | 0.08 | 92 | 1011.1 |
| 20260505100829 | 52 | 9 | 0.0 | 1.0 | 0.00 | 0.08 | 0.08 | 92 | 1011.1 |
| 20260505100327 | 52 | 304 | 0.0 | 1.0 | 0.00 | 0.08 | 0.08 | 92 | 1011.2 |
| 20260505095822 | 52 | 138 | 0.0 | 2.0 | 0.00 | 0.08 | 0.08 | 91 | 1010.9 |
| 20260505095320 | 52 | 232 | 1.0 | 2.0 | 0.00 | 0.08 | 0.08 | 92 | 1011.0 |
| 20260505094815 | 52 | 154 | 0.0 | 2.0 | 0.00 | 0.08 | 0.08 | 92 | 1011.3 |
| 20260505094313 | 52 | 185 | 2.0 | 2.0 | 0.00 | 0.08 | 0.08 | 91 | 1011.2 |
| 20260505093808 | 52 | 175 | 3.0 | 3.0 | 0.00 | 0.08 | 0.08 | 91 | 1011.0 |
| 20260505093306 | 53 | 152 | 3.0 | 4.0 | 0.00 | 0.08 | 0.08 | 90 | 1011.2 |
| 20260505092803 | 53 | 164 | 1.0 | 2.0 | 0.00 | 0.08 | 0.08 | 90 | 1011.2 |
| 20260505092304 | 53 | 108 | 0.0 | 4.0 | 0.00 | 0.08 | 0.08 | 90 | 1011.2 |
| 20260505091758 | 53 | 215 | 2.0 | 2.0 | 0.00 | 0.08 | 0.08 | 90 | 1011.3 |
| 20260505091256 | 53 | 43 | 0.0 | 3.0 | 0.00 | 0.08 | 0.08 | 90 | 1011.2 |
| 20260505090754 | 53 | 41 | 0.0 | 2.0 | 0.00 | 0.08 | 0.08 | 89 | 1011.2 |
| 20260505090252 | 53 | 147 | 3.0 | 4.0 | 0.02 | 0.08 | 0.08 | 88 | 1011.2 |
| 20260505085749 | 53 | 183 | 2.0 | 3.0 | 0.07 | 0.08 | 0.08 | 87 | 1011.4 |
| 20260505085247 | 53 | 289 | 3.0 | 4.0 | 0.05 | 0.07 | 0.07 | 86 | 1011.5 |
| 20260505084744 | 53 | 2 | 1.0 | 3.0 | 0.00 | 0.07 | 0.07 | 84 | 1011.6 |
| 20260505084243 | 53 | 162 | 2.0 | 4.0 | 0.02 | 0.07 | 0.07 | 83 | 1011.4 |
| 20260505083739 | 54 | 161 | 2.0 | 4.0 | 0.12 | 0.07 | 0.07 | 81 | 1011.2 |
| 20260505083236 | 55 | 115 | 5.0 | 5.0 | 0.38 | 0.06 | 0.06 | 77 | 1011.4 |
| 20260505082732 | 55 | 273 | 1.0 | 4.0 | 0.19 | 0.03 | 0.03 | 73 | 1011.4 |
| 20260505082230 | 55 | 208 | 2.0 | 3.0 | 0.00 | 0.00 | 0.00 | 70 | 1011.3 |
| 20260505081725 | 55 | 149 | 0.0 | 1.0 | 0.00 | 0.00 | 0.00 | 70 | 1011.1 |
| 20260505081223 | 55 | 202 | 2.0 | 4.0 | 0.00 | 0.00 | 0.00 | 70 | 1011.3 |
| 20260505080720 | 55 | 258 | 2.0 | 4.0 | 0.00 | 0.00 | 0.00 | 71 | 1011.3 |
| 20260505080215 | 55 | 291 | 2.0 | 3.0 | 0.00 | 0.00 | 0.00 | 72 | 1010.9 |
| 20260505075711 | 55 | 277 | 1.0 | 2.0 | 0.00 | 0.00 | 0.00 | 72 | 1010.9 |
| 20260505075209 | 55 | 269 | 0.0 | 2.0 | 0.00 | 0.00 | 0.00 | 72 | 1010.8 |
| 20260505074706 | 55 | 304 | 1.0 | 2.0 | 0.00 | 0.00 | 0.00 | 71 | 1010.7 |
| 20260505074203 | 55 | 38 | 0.0 | 1.0 | 0.00 | 0.00 | 0.00 | 70 | 1010.8 |
| 20260505073700 | 55 | 52 | 2.0 | 2.0 | 0.00 | 0.00 | 0.00 | 70 | 1010.7 |
| 20260505073158 | 55 | 23 | 0.0 | 1.0 | 0.00 | 0.00 | 0.00 | 69 | 1010.7 |
| 20260505072654 | 55 | 228 | 0.0 | 1.0 | 0.00 | 0.00 | 0.00 | 68 | 1010.9 |
| 20260505072151 | 55 | 209 | 1.0 | 2.0 | 0.00 | 0.00 | 0.00 | 68 | 1011.0 |
| 20260505071646 | 56 | 242 | 0.0 | 2.0 | 0.00 | 0.00 | 0.00 | 68 | 1010.8 |
| 20260505071144 | 56 | 242 | 0.0 | 1.0 | 0.00 | 0.00 | 0.00 | 67 | 1010.7 |
| 20260505070641 | 56 | 253 | 0.0 | 2.0 | 0.00 | 0.00 | 0.00 | 67 | 1010.9 |
| 20260505070137 | 56 | 301 | 0.0 | 1.0 | 0.00 | 0.00 | 0.00 | 67 | 1010.9 |
| 20260505065633 | 56 | 232 | 0.0 | 2.0 | 0.00 | 0.00 | 0.00 | 67 | 1010.8 |
| 20260505065130 | 56 | 238 | 2.0 | 2.0 | 0.00 | 0.00 | 0.00 | 67 | 1010.9 |
| 20260505064627 | 56 | 234 | 1.0 | 2.0 | 0.00 | 0.00 | 0.00 | 67 | 1010.8 |
| 20260505064125 | 56 | 280 | 1.0 | 2.0 | 0.00 | 0.00 | 0.00 | 67 | 1010.9 |
| 20260505063622 | 57 | 305 | 1.0 | 2.0 | 0.00 | 0.00 | 0.00 | 66 | 1010.8 |
| 20260505063118 | 57 | 266 | 1.0 | 2.0 | 0.00 | 0.00 | 0.00 | 65 | 1010.8 |
| 20260505062615 | 57 | 244 | 0.0 | 2.0 | 0.00 | 0.00 | 0.00 | 63 | 1011.0 |
| 20260505062112 | 58 | 301 | 0.0 | 2.0 | 0.00 | 0.00 | 0.00 | 61 | 1010.9 |
| 20260505061609 | 59 | 351 | 1.0 | 2.0 | 0.00 | 0.00 | 0.00 | 58 | 1011.2 |
| 20260505061107 | 59 | 210 | 1.0 | 2.0 | 0.00 | 0.00 | 0.00 | 56 | 1010.9 |
| 20260505060605 | 59 | 272 | 0.0 | 2.0 | 0.00 | 0.00 | 0.00 | 56 | 1010.9 |
| 20260505055556 | 59 | 176 | 0.0 | 1.0 | 0.00 | 0.00 | 0.00 | 54 | 1010.9 |
| 20260505055053 | 60 | 14 | 1.0 | 2.0 | 0.00 | 0.00 | 0.00 | 54 | 1011.0 |
| 20260505054550 | 60 | 84 | 1.0 | 2.0 | 0.00 | 0.00 | 0.00 | 53 | 1010.9 |
| 20260505054049 | 61 | 114 | 2.0 | 2.0 | 0.00 | 0.00 | 0.00 | 51 | 1010.9 |
| 20260505053545 | 61 | 105 | 1.0 | 3.0 | 0.00 | 0.00 | 0.00 | 51 | 1010.8 |
| 20260505053042 | 61 | 128 | 3.0 | 3.0 | 0.00 | 0.00 | 0.00 | 51 | 1010.9 |
| 20260505052539 | 61 | 171 | 2.0 | 9.0 | 0.00 | 0.00 | 0.00 | 51 | 1010.9 |
| 20260505052037 | 61 | 175 | 4.0 | 4.0 | 0.00 | 0.00 | 0.00 | 51 | 1010.8 |
| 20260505051533 | 61 | 108 | 0.0 | 3.0 | 0.00 | 0.00 | 0.00 | 51 | 1010.8 |
| 20260505051031 | 61 | 109 | 1.0 | 3.0 | 0.00 | 0.00 | 0.00 | 50 | 1010.9 |
| 20260505050529 | 61 | 171 | 2.0 | 5.0 | 0.00 | 0.00 | 0.00 | 50 | 1011.0 |
| 20260505041457 | 63 | 226 | 3.0 | 3.0 | 0.00 | 0.00 | 0.00 | 47 | 1010.9 |
| 20260505040954 | 63 | 225 | 0.0 | 2.0 | 0.00 | 0.00 | 0.00 | 47 | 1010.7 |
| 20260505040452 | 63 | 203 | 3.0 | 3.0 | 0.00 | 0.00 | 0.00 | 46 | 1010.6 |
| 20260505035948 | 63 | 228 | 2.0 | 4.0 | 0.00 | 0.00 | 0.00 | 46 | 1010.7 |
| 20260505035444 | 63 | 176 | 5.0 | 6.0 | 0.00 | 0.00 | 0.00 | 46 | 1010.5 |
| 20260505034942 | 63 | 128 | 0.0 | 2.0 | 0.00 | 0.00 | 0.00 | 47 | 1010.7 |
| 20260505034438 | 63 | 168 | 2.0 | 4.0 | 0.00 | 0.00 | 0.00 | 46 | 1010.4 |
| 20260505033935 | 63 | 140 | 2.0 | 2.0 | 0.00 | 0.00 | 0.00 | 46 | 1010.3 |
| 20260505033432 | 64 | 185 | 3.0 | 4.0 | 0.00 | 0.00 | 0.00 | 45 | 1010.8 |
| 20260505032930 | 64 | 116 | 3.0 | 3.0 | 0.00 | 0.00 | 0.00 | 45 | 1010.6 |
| 20260505032427 | 64 | 215 | 0.0 | 3.0 | 0.00 | 0.00 | 0.00 | 44 | 1010.6 |
| 20260505031923 | 64 | 179 | 2.0 | 4.0 | 0.00 | 0.00 | 0.00 | 44 | 1010.7 |
| 20260505031420 | 64 | 44 | 2.0 | 3.0 | 0.00 | 0.00 | 0.00 | 44 | 1010.7 |
| 20260505030917 | 64 | 260 | 3.0 | 3.0 | 0.00 | 0.00 | 0.00 | 43 | 1010.7 |
| 20260505030413 | 65 | 219 | 0.0 | 6.0 | 0.00 | 0.00 | 0.00 | 43 | 1010.8 |
| 20260505025909 | 65 | 187 | 3.0 | 3.0 | 0.00 | 0.00 | 0.00 | 43 | 1010.8 |
| 20260505025406 | 65 | 236 | 2.0 | 4.0 | 0.00 | 0.00 | 0.00 | 43 | 1010.9 |
| 20260505024905 | 65 | 44 | 2.0 | 4.0 | 0.00 | 0.00 | 0.00 | 43 | 1010.7 |
| 20260505024402 | 65 | 218 | 1.0 | 4.0 | 0.00 | 0.00 | 0.00 | 43 | 1010.6 |
| 20260505023859 | 65 | 128 | 0.0 | 3.0 | 0.00 | 0.00 | 0.00 | 42 | 1010.7 |
| 20260505023356 | 65 | 130 | 2.0 | 6.0 | 0.00 | 0.00 | 0.00 | 42 | 1010.7 |
| 20260505022853 | 66 | 205 | 2.0 | 5.0 | 0.00 | 0.00 | 0.00 | 43 | 1010.9 |
| 20260505022350 | 66 | 157 | 3.0 | 13.0 | 0.00 | 0.00 | 0.00 | 42 | 1010.9 |
| 20260505021848 | 66 | 189 | 2.0 | 8.0 | 0.00 | 0.00 | 0.00 | 42 | 1011.0 |
| 20260505021344 | 66 | 201 | 2.0 | 4.0 | 0.00 | 0.00 | 0.00 | 42 | 1010.9 |
| 20260505020840 | 66 | 213 | 4.0 | 7.0 | 0.00 | 0.00 | 0.00 | 41 | 1011.0 |
| 20260505020335 | 66 | 189 | 4.0 | 5.0 | 0.00 | 0.00 | 0.00 | 41 | 1011.0 |
| 20260505015832 | 66 | 168 | 1.0 | 5.0 | 0.00 | 0.00 | 0.00 | 42 | 1011.0 |
| 20260505015330 | 66 | 185 | 3.0 | 4.0 | 0.00 | 0.00 | 0.00 | 41 | 1010.8 |
| 20260505014827 | 66 | 195 | 9.0 | 9.0 | 0.00 | 0.00 | 0.00 | 41 | 1010.8 |
| 20260505014324 | 66 | 187 | 4.0 | 6.0 | 0.00 | 0.00 | 0.00 | 42 | 1011.0 |
| 20260505013820 | 66 | 173 | 2.0 | 6.0 | 0.00 | 0.00 | 0.00 | 42 | 1010.8 |
| 20260505013318 | 66 | 188 | 4.0 | 6.0 | 0.00 | 0.00 | 0.00 | 41 | 1010.9 |
| 20260505012816 | 66 | 185 | 2.0 | 7.0 | 0.00 | 0.00 | 0.00 | 41 | 1010.8 |
| 20260505012313 | 66 | 173 | 4.0 | 6.0 | 0.00 | 0.00 | 0.00 | 41 | 1010.7 |
| 20260505011809 | 66 | 238 | 4.0 | 6.0 | 0.00 | 0.00 | 0.00 | 41 | 1010.5 |
| 20260505011306 | 66 | 239 | 2.0 | 6.0 | 0.00 | 0.00 | 0.00 | 40 | 1010.6 |
| 20260505010802 | 67 | 191 | 3.0 | 5.0 | 0.00 | 0.00 | 0.00 | 40 | 1010.5 |
| 20260505010258 | 67 | 180 | 2.0 | 4.0 | 0.00 | 0.00 | 0.00 | 40 | 1010.5 |
| 20260505005754 | 67 | 183 | 2.0 | 5.0 | 0.00 | 0.00 | 0.00 | 39 | 1010.4 |
| 20260505005252 | 67 | 184 | 3.0 | 8.0 | 0.00 | 0.00 | 0.00 | 39 | 1010.5 |
| 20260505004749 | 67 | 203 | 7.0 | 10.0 | 0.00 | 0.00 | 0.00 | 39 | 1010.7 |
| 20260505004245 | 67 | 190 | 5.0 | 11.0 | 0.00 | 0.00 | 0.00 | 38 | 1010.4 |
| 20260505003742 | 68 | 196 | 6.0 | 9.0 | 0.00 | 0.00 | 0.00 | 38 | 1010.4 |
| 20260505003240 | 68 | 193 | 6.0 | 8.0 | 0.00 | 0.00 | 0.00 | 38 | 1010.3 |
| 20260505002736 | 68 | 221 | 3.0 | 11.0 | 0.00 | 0.00 | 0.00 | 38 | 1010.3 |
| 20260505002234 | 68 | 220 | 9.0 | 14.0 | 0.00 | 0.00 | 0.00 | 38 | 1010.1 |
| 20260505001731 | 68 | 213 | 2.0 | 6.0 | 0.00 | 0.00 | 0.00 | 37 | 1010.3 |
| 20260505001228 | 68 | 136 | 3.0 | 11.0 | 0.00 | 0.00 | 0.00 | 37 | 1010.2 |
| 20260505000725 | 68 | 217 | 2.0 | 5.0 | 0.00 | 0.00 | 0.00 | 37 | 1010.3 |
| 20260505000223 | 68 | 139 | 3.0 | 14.0 | 0.00 | 0.00 | 0.00 | 37 | 1010.1 |
| 20260504235719 | 69 | 161 | 2.0 | 7.0 | 0.00 | 0.00 | 0.00 | 37 | 1010.0 |
| 20260504235215 | 69 | 135 | 2.0 | 8.0 | 0.00 | 0.00 | 0.00 | 37 | 1010.1 |
| 20260504234713 | 69 | 168 | 1.0 | 7.0 | 0.00 | 0.00 | 0.00 | 36 | 1010.1 |
| 20260504234210 | 69 | 55 | 2.0 | 12.0 | 0.00 | 0.00 | 0.00 | 36 | 1009.9 |
| 20260504233706 | 69 | 177 | 4.0 | 9.0 | 0.00 | 0.00 | 0.00 | 36 | 1009.9 |
| 20260504233202 | 70 | 156 | 2.0 | 5.0 | 0.00 | 0.00 | 0.00 | 37 | 1009.8 |
| 20260504232700 | 70 | 135 | 3.0 | 9.0 | 0.00 | 0.00 | 0.00 | 36 | 1009.8 |
| 20260504232156 | 70 | 160 | 6.0 | 9.0 | 0.00 | 0.00 | 0.00 | 36 | 1009.8 |
| 20260504231653 | 71 | 170 | 3.0 | 13.0 | 0.00 | 0.00 | 0.00 | 36 | 1009.7 |
| 20260504231150 | 71 | 356 | 2.0 | 12.0 | 0.00 | 0.00 | 0.00 | 36 | 1009.6 |
| 20260504230646 | 71 | 255 | 2.0 | 5.0 | 0.00 | 0.00 | 0.00 | 35 | 1009.4 |
| 20260504230145 | 72 | 193 | 9.0 | 16.0 | 0.00 | 0.00 | 0.00 | 35 | 1009.8 |
| 20260504225643 | 72 | 110 | 4.0 | 9.0 | 0.00 | 0.00 | 0.00 | 36 | 1009.4 |
| 20260504225138 | 72 | 178 | 4.0 | 7.0 | 0.00 | 0.00 | 0.00 | 35 | 1009.4 |
| 20260504224635 | 72 | 128 | 5.0 | 13.0 | 0.00 | 0.00 | 0.00 | 35 | 1009.3 |
| 20260504224132 | 73 | 184 | 6.0 | 10.0 | 0.00 | 0.00 | 0.00 | 34 | 1009.4 |
| 20260504223629 | 73 | 188 | 14.0 | 15.0 | 0.00 | 0.00 | 0.00 | 32 | 1009.4 |
| 20260504223125 | 74 | 214 | 4.0 | 12.0 | 0.00 | 0.00 | 0.00 | 31 | 1009.2 |
| 20260504222622 | 73 | 258 | 3.0 | 10.0 | 0.00 | 0.00 | 0.00 | 31 | 1009.4 |
| 20260504222119 | 73 | 216 | 6.0 | 16.0 | 0.00 | 0.00 | 0.00 | 31 | 1009.4 |
| 20260504221616 | 74 | 188 | 8.0 | 17.0 | 0.00 | 0.00 | 0.00 | 31 | 1009.5 |
| 20260504221114 | 73 | 183 | 6.0 | 10.0 | 0.00 | 0.00 | 0.00 | 32 | 1009.3 |
| 20260504220610 | 73 | 205 | 6.0 | 14.0 | 0.00 | 0.00 | 0.00 | 31 | 1009.4 |
| 20260504220108 | 74 | 198 | 9.0 | 18.0 | 0.00 | 0.00 | 0.00 | 31 | 1009.6 |
| 20260504215603 | 73 | 245 | 8.0 | 13.0 | 0.00 | 0.00 | 0.00 | 32 | 1009.6 |
| 20260504215101 | 73 | 229 | 8.0 | 14.0 | 0.00 | 0.00 | 0.00 | 31 | 1009.7 |
| 20260504214557 | 73 | 223 | 10.0 | 13.0 | 0.00 | 0.00 | 0.00 | 31 | 1009.6 |
| 20260504214053 | 73 | 204 | 11.0 | 15.0 | 0.00 | 0.00 | 0.00 | 31 | 1009.6 |
| 20260504213550 | 74 | 260 | 6.0 | 11.0 | 0.00 | 0.00 | 0.00 | 31 | 1009.5 |
| 20260504213047 | 74 | 248 | 6.0 | 9.0 | 0.00 | 0.00 | 0.00 | 31 | 1009.7 |
| 20260504212543 | 74 | 193 | 7.0 | 15.0 | 0.00 | 0.00 | 0.00 | 31 | 1009.7 |
| 20260504212040 | 73 | 187 | 6.0 | 13.0 | 0.00 | 0.00 | 0.00 | 32 | 1009.8 |
| 20260504211537 | 74 | 242 | 10.0 | 17.0 | 0.00 | 0.00 | 0.00 | 31 | 1009.8 |
| 20260504211034 | 73 | 201 | 6.0 | 19.0 | 0.00 | 0.00 | 0.00 | 32 | 1009.8 |
| 20260504210531 | 74 | 224 | 6.0 | 15.0 | 0.00 | 0.00 | 0.00 | 30 | 1009.7 |
| 20260504210028 | 73 | 265 | 4.0 | 12.0 | 0.00 | 0.00 | 0.00 | 32 | 1009.8 |
| 20260504205526 | 73 | 257 | 7.0 | 13.0 | 0.00 | 0.00 | 0.00 | 31 | 1009.8 |
| 20260504205023 | 73 | 242 | 5.0 | 13.0 | 0.00 | 0.00 | 0.00 | 31 | 1009.9 |
| 20260504204521 | 74 | 247 | 7.0 | 16.0 | 0.00 | 0.00 | 0.00 | 30 | 1009.8 |
| 20260504204020 | 74 | 240 | 6.0 | 15.0 | 0.00 | 0.00 | 0.00 | 30 | 1010.1 |
| 20260504203517 | 74 | 208 | 6.0 | 15.0 | 0.00 | 0.00 | 0.00 | 30 | 1010.1 |
| 20260504203015 | 74 | 253 | 7.0 | 10.0 | 0.00 | 0.00 | 0.00 | 31 | 1010.1 |
| 20260504202510 | 74 | 232 | 6.0 | 14.0 | 0.00 | 0.00 | 0.00 | 31 | 1010.2 |
| 20260504202007 | 73 | 188 | 7.0 | 17.0 | 0.00 | 0.00 | 0.00 | 32 | 1010.2 |
| 20260504201504 | 73 | 230 | 4.0 | 11.0 | 0.00 | 0.00 | 0.00 | 31 | 1010.1 |
| 20260504201002 | 73 | 265 | 9.0 | 17.0 | 0.00 | 0.00 | 0.00 | 31 | 1010.2 |
| 20260504200458 | 73 | 220 | 11.0 | 21.0 | 0.00 | 0.00 | 0.00 | 31 | 1010.2 |
| 20260504195955 | 73 | 243 | 6.0 | 15.0 | 0.00 | 0.00 | 0.00 | 31 | 1010.3 |